This demonstration page uses our WeatherBlox Daily Observations layout. Learn more.

Left ArrowRight Arrow

41.12389, -100.76542

Hourly Observations for July 27, 2018

Temp ( °F °C ) Dew Point ( °F °C ) Humidity (%) Winds ( mph kmh ) Pressure ( in mb ) Visibility ( mi km ) Precip ( " mm )
12:53 am 00:53 Clear 60 15.6 60 15.6 100 100 Calm 30.15 1021 9 14 0.00 0.00
1:53 am 01:53 Clear 57 13.9 57 13.9 100 100 SE 3 6 30.14 1021 7 11 0.00 0.00
2:35 am 02:35 Clear with Mist and Fog 58 14.4 58 14.4 100 100 SE 3 6 30.15 1021 2 3 0.00 0.00
2:37 am 02:37 Mostly Cloudy with Mist and Fog 58 14.4 58 14.4 100 100 SE 3 6 30.15 1021 1 2 0.00 0.00
2:44 am 02:44 Mostly Cloudy with Fog 57 13.9 57 13.9 100 100 ESE 3 6 30.15 1021 1 1 0.00 0.00
2:53 am 02:53 Mostly Cloudy with Fog 58 14.4 58 14.4 100 100 Calm 30.14 1021 0 0 0.00 0.00
3:02 am 03:02 Mostly Cloudy with Fog 58 14.4 58 14.4 100 100 ESE 3 6 30.15 1021 0 0 0.00 0.00
3:09 am 03:09 Mostly Cloudy with Fog 59 15 59 15 100 100 E 3 6 30.15 1021 1 1 0.00 0.00
3:13 am 03:13 Mostly Cloudy with Fog 59 15 59 15 100 100 Calm 30.15 1021 0 0 0.00 0.00
3:22 am 03:22 Mostly Cloudy with Fog 60 15.6 60 15.6 100 100 Calm 30.12 1020 1 1 0.00 0.00
3:32 am 03:32 Cloudy with Mist and Fog 60 15.6 60 15.6 100 100 NW 5 7 30.12 1020 2 2 0.00 0.00
3:37 am 03:37 Cloudy with Mist and Fog 60 15.6 60 15.6 100 100 WNW 3 6 30.12 1020 3 5 0.00 0.00
3:53 am 03:53 Mostly Cloudy 60 15.6 60 15.6 100 100 Calm 30.14 1021 8 13 0.00 0.00
4:05 am 04:05 Partly Cloudy with Mist and Fog 60 15.6 60 15.6 100 100 Calm 30.12 1020 4 6 0.00 0.00
4:12 am 04:12 Mostly Clear with Mist and Fog 60 15.6 60 15.6 100 100 Calm 30.12 1020 2 3 0.00 0.00
4:21 am 04:21 Clear with Mist and Fog 60 15.6 60 15.6 100 100 Calm 30.12 1020 1 2 0.00 0.00
4:29 am 04:29 Mostly Cloudy with Mist and Fog 60 15.6 60 15.6 100 100 Calm 30.12 1020 1 1 0.00 0.00
4:53 am 04:53 Cloudy with Mist and Fog 60 15.6 60 15.6 100 100 Calm 30.16 1022 2 2 0.00 0.00
4:58 am 04:58 Cloudy with Mist and Fog 60 15.6 60 15.6 100 100 Calm 30.12 1020 3 5 0.00 0.00
5:01 am 05:01 Cloudy with Mist and Fog 60 15.6 60 15.6 100 100 Calm 30.12 1020 2 3 0.00 0.00
5:04 am 05:04 Mostly Cloudy with Mist and Fog 60 15.6 60 15.6 100 100 Calm 30.12 1020 1 1 0.00 0.00
5:15 am 05:15 Mostly Cloudy with Fog 61 16.1 61 16.1 100 100 N 3 6 30.12 1020 0 0 0.00 0.00
5:29 am 05:29 Mostly Cloudy with Fog 61 16.1 61 16.1 100 100 Calm 30.12 1020 0 0 0.00 0.00
5:53 am 05:53 Mostly Cloudy with Fog 62 16.7 62 16.7 100 100 S 8 13 30.13 1020 0 0 0.00 0.00
6:01 am 06:01 Mostly Cloudy with Mist and Fog 62 16.7 62 16.7 100 100 S 6 9 30.09 1019 1 1 0.00 0.00
6:11 am 06:11 Cloudy with Mist and Fog 62 16.7 62 16.7 100 100 S 7 11 30.09 1019 2 2 0.00 0.00
6:17 am 06:17 Mostly Cloudy with Mist and Fog 62 16.7 62 16.7 100 100 S 6 9 30.09 1019 3 5 0.00 0.00
6:30 am 06:30 Partly Cloudy with Mist and Fog 61 16.1 61 16.1 100 100 Calm 30.09 1019 6 10 0.00 0.00
6:43 am 06:43 Partly Cloudy with Mist and Fog 60 15.6 60 15.6 100 100 E 7 11 30.09 1019 2 3 0.00 0.00
6:46 am 06:46 Mostly Cloudy with Mist and Fog 61 16.1 61 16.1 100 100 E 6 9 30.09 1019 1 1 0.00 0.00
6:53 am 06:53 Mostly Cloudy with Fog 61 16.1 61 16.1 100 100 E 7 11 30.14 1021 0 0 0.00 0.00
7:10 am 07:10 Mostly Cloudy with Mist and Fog 61 16.1 61 16.1 100 100 E 7 11 30.12 1020 1 2 0.00 0.00
7:13 am 07:13 Mostly Cloudy with Mist and Fog 61 16.1 61 16.1 100 100 E 6 9 30.12 1020 2 3 0.00 0.00
7:19 am 07:19 Mostly Cloudy with Mist and Fog 61 16.1 61 16.1 100 100 E 5 7 30.09 1019 3 5 0.00 0.00
7:53 am 07:53 Mostly Sunny 62 16.7 62 16.7 100 100 SE 7 11 30.14 1021 7 11 0.00 0.00
8:18 am 08:18 Partly Cloudy with Mist and Fog 63 17.2 63 17.2 100 100 SE 7 11 30.12 1020 4 6 0.00 0.00
8:33 am 08:33 Mostly Cloudy with Mist and Fog 64 17.8 64 17.8 100 100 SE 6 9 30.12 1020 4 6 0.00 0.00
8:53 am 08:53 Mostly Cloudy with Mist and Fog 65 18.3 65 18.3 100 100 SSE 7 11 30.15 1021 5 8 0.00 0.00
9:08 am 09:08 Mostly Cloudy 66 18.9 65 18.3 96 96 SSE 12 19 30.09 1019 9 14 0.00 0.00
9:15 am 09:15 Partly Cloudy 66 18.9 65 18.3 96 96 SE 9 15 30.09 1019 10 16 0.00 0.00
9:53 am 09:53 Sunny 69 20.6 65 18.3 87 87 ESE 5 7 30.15 1021 10 16 0.00 0.00
10:53 am 10:53 Sunny 74 23.3 66 18.9 76 76 SE 7 11 30.14 1021 10 16 0.00 0.00
11:53 am 11:53 Mostly Cloudy 77 25 66 18.9 69 69 SE 3 6 30.15 1021 10 16 0.00 0.00
12:53 pm 12:53 Mostly Cloudy 76 24.4 65 18.3 69 69 SSE 3 6 30.14 1021 10 16 0.00 0.00
1:53 pm 13:53 Partly Cloudy 75 23.9 67 19.4 76 76 SSE 8 13 30.14 1021 10 16 0.00 0.00
2:53 pm 14:53 Sunny 75 23.9 66 18.9 74 74 SSW 9 15 30.14 1021 10 16 0.00 0.00
3:53 pm 15:53 Mostly Sunny 73 22.8 67 19.4 81 81 SSW 7 11 30.12 1020 10 16 0.00 0.03
4:53 pm 16:53 Sunny 78 25.6 68 20 71 71 S 10 17 30.07 1018 10 16 0.00 0.00
5:53 pm 17:53 Sunny 77 25 64 17.8 64 64 VRB 5 7 30.08 1019 10 16 0.00 0.00
6:53 pm 18:53 Sunny 76 24.4 64 17.8 67 67 SSE 3 6 30.06 1018 10 16 0.00 0.00
7:53 pm 19:53 Sunny 73 22.8 64 17.8 74 74 SE 5 7 30.08 1019 10 16 0.00 0.00
8:53 pm 20:53 Sunny 71 21.7 65 18.3 81 81 S 3 6 30.08 1019 10 16 0.00 0.00
9:53 pm 21:53 Clear 65 18.3 64 17.8 97 97 E 6 9 30.06 1018 10 16 0.00 0.00
10:53 pm 22:53 Clear 66 18.9 64 17.8 93 93 ESE 9 15 30.10 1019 10 16 0.00 0.00
11:09 pm 23:09 Mostly Cloudy 66 18.9 64 17.8 93 93 ESE 12 19 30.06 1018 10 16 0.00 0.00
11:31 pm 23:31 Mostly Cloudy 66 18.9 63 17.2 90 90 SE 8 13 30.06 1018 10 16 0.00 0.00
11:53 pm 23:53 Mostly Clear 66 18.9 63 17.2 90 90 SSE 9 15 30.07 1018 10 16 0.00 0.00

Powered by AerisWeather